sat.trackr.live / text

‹ back to catalog

STARLINK-36663

NORAD 67919 · 2026-036R

PAYLOAD ACTIVE UNKNOWN

§ Identity

Operator
Country
US
Launch date
2026-02-22
Launch site
AFETR
Launch vehicle
Mass (kg)
RCS (m²)

Purposes: comms

External: N2YO · Heavens-Above · Gunter

§ Orbital elements

Epoch: 2026-05-24T10:55:49.257408Z

Period
94.27 min
Inclination
42.9986°
Eccentricity
0.0001640
Mean motion
15.27592998 rev/d
Perigee alt
481.9 km
Apogee alt
484.1 km
Semi-major
6,861.1 km
B*
5.0318e-4
RAAN
177.0056°
Arg perigee
276.6902°
Mean anomaly
83.3763°
Rev number
1,531

§ Raw data

STARLINK-366631 67919U 26036R   26144.45543122  .00013616  00000+0  50318-3 0  99982 67919  42.9986 177.0056 0001640 276.6902  83.3763 15.27592998 15318

JSON: /api/v1/satellites/67919 · /tle

For live sub-satellite position, see the globe view (requires WebGL).

§ Visibility from observer

Set your observer location to see the next 7 days of passes ≥ 10°. The values pass through the URL so the page stays shareable.

No JS? Fill the form by hand. The geolocation button needs JavaScript.